User: anonymous   Login
Location: Unspecified
(0.0000°N, 0.0000°E)
Time: 22:42:51
(UTC+00:00)
Language:

BIROS - Orbit

View from above orbital plane
View from above orbital plane
View from above satellite
View from above satellite

Ground track
Ground track

The orbit data is extracted from the following two-line orbital elements,

1 41604U 16040F   24149.55355685  .00010471  00000-0  28206-3 0  9992
2 41604  97.1236 178.5811 0010672 114.7097 245.5260 15.37955147441168
Epoch (UTC): 28 May 2024 13:17:07
Eccentricity: 0.0010672
inclination: 97.1236°
perigee height: 445 km
apogee height: 459 km
right ascension of ascending node: 178.5811°
argument of perigee: 114.7097°
revolutions per day: 15.37955147
mean anomaly at epoch: 245.5260°
orbit number at epoch: 44116

The dashed part of the orbit path shows where the satellite is in the earth's shadow,  

DLR